CW1035 Weather Reports


Display with metric or nautical units.
time (UTC)temp
F
wind
direction
speed
MPH
gust
MPH
rain 1hr
in
rain 24hr
in
rain mn
in
humidity
%
barometer
mb
20260507090159 50 288 4.0 10.0 0.00 0.01 0.00 88 1021.8
20260507085659 50 243 2.0 10.0 0.00 0.01 0.00 88 1021.9
20260507084659 50 257 2.0 11.0 0.00 0.01 0.00 88 1022.0
20260507083659 50 252 4.0 7.0 0.00 0.01 0.00 88 1022.0
20260507083159 50 281 1.0 7.0 0.00 0.01 0.00 89 1022.0
20260507082659 50 278 1.0 6.0 0.00 0.01 0.00 89 1022.0
20260507082158 50 289 2.0 7.0 0.00 0.01 0.00 89 1021.9
20260507081659 50 302 2.0 7.0 0.00 0.01 0.00 90 1021.9
20260507081159 50 255 1.0 7.0 0.00 0.01 0.00 90 1022.0
20260507080659 50 244 2.0 7.0 0.00 0.01 0.00 90 1021.9
20260507075658 50 274 2.0 7.0 0.00 0.01 0.00 90 1022.0
20260507075158 51 279 2.0 7.0 0.00 0.01 0.00 90 1021.9
20260507074658 51 297 4.0 7.0 0.00 0.01 0.00 90 1021.8
20260507074157 51 258 3.0 7.0 0.00 0.01 0.00 89 1021.7
20260507073658 51 306 4.0 8.0 0.00 0.01 0.00 89 1021.7
20260507073158 51 256 1.0 8.0 0.00 0.01 0.00 88 1021.7
20260507072657 51 290 4.0 6.0 0.00 0.01 0.00 88 1021.7
20260507071658 51 264 3.0 6.0 0.00 0.01 0.00 88 1021.6
20260507071157 51 280 4.0 5.0 0.00 0.01 0.00 88 1021.6
20260507070659 51 328 0.0 5.0 0.00 0.01 0.00 89 1021.6
20260507070157 51 264 2.0 5.0 0.00 0.01 0.00 89 1021.6
20260507065657 51 262 1.0 5.0 0.00 0.01 0.01 89 1021.6
20260507065157 51 248 2.0 5.0 0.00 0.01 0.01 89 1021.5
20260507064657 51 263 2.0 4.0 0.00 0.01 0.01 89 1021.5
20260507064157 51 290 3.0 4.0 0.00 0.01 0.01 89 1021.5
20260507063656 51 279 2.0 4.0 0.00 0.01 0.01 89 1021.5
20260507063156 51 272 1.0 4.0 0.00 0.01 0.01 89 1021.4
20260507062657 51 267 3.0 6.0 0.00 0.01 0.01 89 1021.5
20260507062156 51 280 2.0 6.0 0.00 0.01 0.01 89 1021.5
20260507061156 51 299 0.0 5.0 0.00 0.01 0.01 89 1021.5
20260507060656 51 283 3.0 5.0 0.00 0.01 0.01 90 1021.6
20260507060156 51 267 1.0 6.0 0.00 0.01 0.01 90 1021.6
20260507055656 51 243 0.0 7.0 0.00 0.01 0.01 90 1021.6
20260507055156 51 269 6.0 7.0 0.00 0.01 0.01 90 1021.6
20260507054656 51 263 0.0 6.0 0.00 0.01 0.01 90 1021.7
20260507053656 51 250 2.0 8.0 0.00 0.01 0.01 90 1021.6
20260507053156 51 290 7.0 8.0 0.00 0.01 0.01 90 1021.6
20260507052656 51 257 3.0 6.0 0.00 0.01 0.01 90 1021.7
20260507052155 51 274 1.0 6.0 0.00 0.01 0.01 90 1021.6
20260507051655 51 249 3.0 8.0 0.00 0.01 0.01 90 1021.7
20260507051155 51 240 4.0 9.0 0.00 0.01 0.01 90 1021.8
20260507050155 51 283 7.0 7.0 0.00 0.01 0.01 90 1021.7
20260507045655 51 256 0.0 6.0 0.00 0.01 0.01 90 1021.8
20260507045156 51 261 2.0 6.0 0.00 0.01 0.01 90 1021.8
20260507044655 51 252 0.0 6.0 0.00 0.01 0.01 90 1021.7
20260507044154 51 297 1.0 5.0 0.00 0.01 0.01 89 1021.7
20260507043654 52 319 2.0 5.0 0.00 0.01 0.01 89 1021.7
20260507043154 52 264 3.0 5.0 0.00 0.01 0.01 89 1021.7
20260507042655 52 254 2.0 5.0 0.00 0.01 0.01 89 1021.7
20260507042155 52 251 0.0 6.0 0.00 0.01 0.01 88 1021.6
20260507041154 53 284 3.0 5.0 0.00 0.01 0.01 88 1021.5
20260507040654 53 262 1.0 5.0 0.00 0.01 0.01 88 1021.5
20260507040154 53 251 2.0 8.0 0.00 0.01 0.01 87 1021.5
20260507035654 53 295 2.0 8.0 0.00 0.01 0.01 87 1021.6
20260507035154 53 244 2.0 7.0 0.00 0.01 0.01 87 1021.5
20260507034654 53 244 1.0 6.0 0.00 0.01 0.01 87 1021.5
20260507034154 53 281 3.0 8.0 0.00 0.01 0.01 87 1021.5
20260507033153 53 236 1.0 7.0 0.00 0.01 0.01 87 1021.5
20260507032654 53 273 3.0 7.0 0.00 0.01 0.01 87 1021.4
20260507032153 53 298 2.0 7.0 0.00 0.01 0.01 87 1021.3
20260507031653 53 270 4.0 7.0 0.00 0.01 0.01 87 1021.3
20260507031153 53 262 0.0 5.0 0.00 0.01 0.01 87 1021.3
20260507030653 53 275 2.0 5.0 0.00 0.01 0.01 87 1021.3
20260507030153 53 241 3.0 5.0 0.00 0.01 0.01 87 1021.3
20260507025653 53 263 1.0 5.0 0.00 0.01 0.01 87 1021.2
20260507024653 53 249 1.0 5.0 0.00 0.01 0.01 87 1021.3
20260507024153 53 240 1.0 4.0 0.00 0.01 0.01 87 1021.3
20260507023653 53 285 3.0 5.0 0.00 0.01 0.01 87 1021.3
20260507023153 53 289 0.0 5.0 0.00 0.01 0.01 87 1021.2
20260507022653 54 253 3.0 5.0 0.00 0.01 0.01 87 1021.3
20260507022152 54 300 3.0 4.0 0.00 0.01 0.01 87 1021.3
20260507021152 54 281 2.0 5.0 0.00 0.01 0.01 86 1021.4
20260507020652 54 314 2.0 4.0 0.00 0.01 0.01 86 1021.4
20260507015652 54 264 0.0 6.0 0.00 0.01 0.01 86 1021.4
20260507015152 54 311 3.0 5.0 0.00 0.01 0.01 86 1021.4
20260507013651 54 268 3.0 5.0 0.00 0.01 0.01 86 1021.3
20260507012152 55 261 4.0 5.0 0.00 0.01 0.01 85 1021.3
20260507011651 55 353 0.0 3.0 0.00 0.01 0.01 85 1021.3
20260507011151 54 110 0.0 2.0 0.00 0.01 0.01 85 1021.3
20260507010651 54 110 2.0 2.0 0.00 0.01 0.01 85 1021.2
20260507010151 54 110 0.0 2.0 0.00 0.01 0.01 85 1021.3
20260507005651 54 110 0.0 2.0 0.00 0.01 0.01 85 1021.3
20260507004650 54 110 1.0 2.0 0.00 0.01 0.01 85 1021.4
20260507004150 54 110 0.0 2.0 0.00 0.01 0.01 86 1021.4
20260507003650 54 110 0.0 3.0 0.00 0.01 0.01 86 1021.3
20260507002650 54 86 0.0 4.0 0.00 0.01 0.01 86 1021.3
20260507002150 54 76 1.0 4.0 0.00 0.01 0.01 85 1021.3
20260507001650 54 89 1.0 4.0 0.00 0.01 0.01 85 1021.3
20260507001150 54 93 2.0 3.0 0.00 0.01 0.01 85 1021.2
20260507000150 54 91 0.0 3.0 0.00 0.01 0.01 86 1021.3
20260506235650 54 94 1.0 3.0 0.00 0.01 0.01 86 1021.3
20260506235149 54 82 2.0 3.0 0.00 0.01 0.01 86 1021.3
20260506234649 54 18 3.0 4.0 0.00 0.01 0.01 86 1021.3
20260506234150 54 100 2.0 4.0 0.00 0.01 0.01 86 1021.3
20260506233649 54 97 4.0 4.0 0.00 0.01 0.01 86 1021.4
20260506232649 54 119 2.0 5.0 0.00 0.01 0.01 87 1021.3
20260506231649 54 98 2.0 4.0 0.00 0.01 0.01 87 1021.4
20260506230149 53 115 3.0 4.0 0.00 0.01 0.01 87 1021.4
20260506225648 53 141 3.0 5.0 0.00 0.01 0.01 88 1021.4
20260506225149 54 101 3.0 5.0 0.00 0.01 0.01 88 1021.5
20260506224648 54 73 3.0 5.0 0.00 0.01 0.01 88 1021.6
20260506224149 54 98 2.0 5.0 0.00 0.01 0.01 88 1021.5
20260506223649 54 75 3.0 4.0 0.00 0.01 0.01 88 1021.5
20260506223149 54 121 2.0 4.0 0.00 0.01 0.01 87 1021.5
20260506222648 54 132 1.0 4.0 0.00 0.01 0.01 88 1021.5
20260506222148 53 126 2.0 4.0 0.00 0.01 0.01 88 1021.5
20260506221648 53 93 2.0 4.0 0.00 0.01 0.01 89 1021.5
20260506221148 53 105 1.0 3.0 0.00 0.01 0.01 89 1021.5
20260506220648 53 129 1.0 4.0 0.00 0.01 0.01 89 1021.5
20260506220148 53 94 1.0 5.0 0.00 0.01 0.01 89 1021.6
20260506215647 53 126 2.0 5.0 0.00 0.01 0.01 89 1021.5
20260506215147 53 125 1.0 5.0 0.00 0.01 0.01 89 1021.5
20260506214648 53 88 2.0 5.0 0.00 0.01 0.01 89 1021.5
20260506214148 53 98 3.0 4.0 0.00 0.01 0.01 88 1021.6
20260506213147 53 108 1.0 5.0 0.00 0.01 0.01 88 1021.7
20260506212647 54 94 2.0 5.0 0.00 0.01 0.01 86 1021.7
20260506212147 55 263 2.0 3.0 0.00 0.01 0.01 86 1021.7
20260506211147 54 248 0.0 6.0 0.00 0.01 0.01 87 1021.6
20260506210647 54 251 0.0 6.0 0.00 0.01 0.01 87 1021.7
20260506210147 54 243 4.0 5.0 0.00 0.01 0.01 88 1021.6
20260506205646 53 241 2.0 5.0 0.00 0.01 0.01 89 1021.5
20260506205146 53 220 1.0 5.0 0.00 0.01 0.01 90 1021.5
20260506204647 53 321 2.0 7.0 0.00 0.01 0.01 90 1021.6
20260506204147 52 252 1.0 7.0 0.00 0.01 0.01 91 1021.5
20260506203646 52 265 0.0 6.0 0.00 0.01 0.01 91 1021.6
20260506203146 52 244 1.0 8.0 0.00 0.01 0.01 92 1021.7
20260506202646 52 270 2.0 8.0 0.00 0.01 0.01 92 1021.7
20260506202146 52 287 3.0 7.0 0.00 0.01 0.01 93 1021.6
20260506201646 52 243 1.0 5.0 0.00 0.01 0.01 93 1021.6
20260506200646 51 255 2.0 7.0 0.00 0.01 0.01 93 1021.6
20260506200146 51 259 3.0 7.0 0.00 0.01 0.01 93 1021.5
20260506195645 51 336 3.0 7.0 0.00 0.01 0.01 94 1021.5
20260506195145 51 302 1.0 7.0 0.00 0.01 0.01 94 1021.5
20260506194646 51 325 2.0 7.0 0.00 0.01 0.01 94 1021.4
20260506194145 51 307 1.0 6.0 0.00 0.01 0.01 94 1021.4
20260506193645 50 279 2.0 6.0 0.00 0.01 0.01 95 1021.3
20260506192145 50 263 2.0 8.0 0.00 0.01 0.01 96 1021.3
20260506191145 50 229 4.0 7.0 0.00 0.01 0.01 96 1021.2
20260506190645 50 296 2.0 7.0 0.00 0.01 0.01 96 1021.2
20260506190145 50 287 2.0 7.0 0.00 0.01 0.01 96 1021.2
20260506185645 50 252 0.0 7.0 0.00 0.01 0.01 96 1021.1
20260506185144 50 266 2.0 7.0 0.00 0.01 0.01 96 1021.1
20260506184144 50 237 0.0 6.0 0.00 0.01 0.01 96 1021.1
20260506183644 50 272 1.0 7.0 0.00 0.01 0.01 97 1021.0
20260506183144 50 288 4.0 7.0 0.00 0.01 0.01 96 1021.0
20260506182644 50 283 2.0 8.0 0.00 0.01 0.01 96 1021.0
20260506182144 50 338 2.0 8.0 0.00 0.01 0.01 97 1021.0
20260506181143 49 278 3.0 7.0 0.00 0.01 0.01 97 1021.0
20260506180644 49 252 2.0 6.0 0.00 0.01 0.01 97 1021.0
20260506180143 49 326 5.0 6.0 0.00 0.01 0.01 97 1021.0
20260506175643 49 303 2.0 6.0 0.01 0.01 0.01 97 1021.0
20260506174643 49 283 3.0 5.0 0.01 0.01 0.01 97 1020.8
20260506174143 49 288 3.0 4.0 0.01 0.01 0.01 97 1020.8
20260506173643 49 261 0.0 6.0 0.01 0.01 0.01 97 1020.7
20260506173143 49 292 2.0 6.0 0.01 0.01 0.01 97 1020.7
20260506172643 49 309 4.0 6.0 0.01 0.01 0.01 97 1020.7
20260506172143 49 292 4.0 6.0 0.01 0.01 0.01 97 1020.6
20260506171643 49 282 5.0 5.0 0.01 0.01 0.01 97 1020.7
20260506171143 49 293 2.0 5.0 0.01 0.01 0.01 97 1020.6
20260506170642 49 282 2.0 4.0 0.01 0.01 0.01 97 1020.5
20260506170143 49 288 2.0 4.0 0.01 0.01 0.01 97 1020.3
20260506165642 49 304 2.0 4.0 0.00 0.00 0.00 97 1020.2
20260506165142 49 285 1.0 6.0 0.00 0.00 0.00 97 1020.4
20260506164642 49 299 3.0 6.0 0.00 0.00 0.00 97 1020.5
20260506164142 49 307 3.0 6.0 0.00 0.00 0.00 97 1020.5
20260506163642 49 269 3.0 6.0 0.00 0.00 0.00 97 1020.6
20260506163142 49 262 2.0 6.0 0.00 0.00 0.00 97 1020.5
20260506162141 49 266 2.0 5.0 0.00 0.00 0.00 97 1020.5
20260506161642 49 319 5.0 5.0 0.00 0.00 0.00 97 1020.5
20260506161141 49 329 3.0 5.0 0.00 0.00 0.00 96 1020.7
20260506160641 49 327 1.0 4.0 0.00 0.00 0.00 97 1020.8
20260506160141 50 291 1.0 3.0 0.00 0.00 0.00 97 1020.7
20260506155641 50 46 2.0 3.0 0.00 0.00 0.00 96 1020.6
20260506155141 50 265 3.0 3.0 0.00 0.00 0.00 97 1020.6
20260506154641 50 82 0.0 2.0 0.00 0.00 0.00 97 1020.5
20260506154141 50 81 0.0 1.0 0.00 0.00 0.00 97 1020.5
20260506153641 50 82 0.0 2.0 0.00 0.00 0.00 97 1020.5
20260506153140 50 82 0.0 2.0 0.00 0.00 0.00 97 1020.6
20260506152640 50 82 0.0 0.0 0.00 0.00 0.00 97 1020.4
20260506152140 50 82 0.0 0.0 0.00 0.00 0.00 97 1020.2
20260506151640 49 82 0.0 1.0 0.00 0.00 0.00 97 1020.1
20260506151141 49 82 0.0 1.0 0.00 0.00 0.00 96 1020.0
20260506145640 50 112 2.0 3.0 0.00 0.00 0.00 96 1019.8
20260506145140 50 82 2.0 3.0 0.00 0.00 0.00 96 1019.8
20260506144640 50 98 1.0 3.0 0.00 0.00 0.00 96 1019.8
20260506144139 50 110 3.0 3.0 0.00 0.00 0.00 96 1019.9
20260506143640 50 96 0.0 3.0 0.00 0.00 0.00 96 1020.0
20260506143139 50 96 0.0 3.0 0.00 0.00 0.00 96 1020.1
20260506142639 50 119 3.0 3.0 0.00 0.00 0.00 96 1020.0
20260506142140 50 116 2.0 2.0 0.00 0.00 0.00 96 1020.0
20260506141639 50 116 0.0 1.0 0.00 0.00 0.00 96 1020.1
20260506141139 50 116 0.0 1.0 0.00 0.00 0.00 96 1020.1
20260506140639 50 116 0.0 3.0 0.00 0.00 0.00 96 1019.9
20260506135639 50 288 2.0 2.0 0.00 0.00 0.00 96 1019.6
20260506134639 50 288 0.0 0.0 0.00 0.00 0.00 96 1019.6
20260506134139 50 288 0.0 0.0 0.00 0.00 0.00 96 1019.6
20260506133639 50 288 0.0 0.0 0.00 0.00 0.00 96 1019.6
20260506133138 49 288 0.0 1.0 0.00 0.00 0.00 96 1019.5
20260506132639 49 288 0.0 1.0 0.00 0.00 0.00 96 1019.5
20260506132139 49 288 0.0 2.0 0.00 0.00 0.00 96 1019.5
20260506131638 49 288 1.0 2.0 0.00 0.00 0.00 96 1019.6
20260506131138 49 288 0.0 3.0 0.00 0.00 0.00 95 1019.4
20260506130638 49 288 1.0 3.0 0.00 0.00 0.00 95 1019.5
20260506130138 49 257 0.0 2.0 0.00 0.00 0.00 95 1019.3
20260506125138 49 268 1.0 3.0 0.00 0.00 0.00 95 1019.6
20260506124638 49 262 1.0 4.0 0.00 0.00 0.00 95 1019.5
20260506124137 49 262 0.0 4.0 0.00 0.00 0.00 95 1019.6
20260506123638 50 288 1.0 4.0 0.00 0.00 0.00 95 1019.6
20260506123137 50 279 1.0 4.0 0.00 0.00 0.00 95 1019.6
20260506122138 50 299 2.0 4.0 0.00 0.00 0.00 94 1019.4
20260506121637 50 269 0.0 4.0 0.00 0.00 0.00 94 1019.4
20260506120637 50 250 0.0 2.0 0.00 0.00 0.00 94 1019.5
20260506120137 50 115 0.0 2.0 0.00 0.00 0.00 94 1019.4
20260506115636 50 115 0.0 2.0 0.00 0.00 0.00 94 1019.2
20260506115137 50 115 2.0 2.0 0.00 0.00 0.00 94 1019.3
20260506114637 50 214 0.0 1.0 0.00 0.00 0.00 94 1019.4
20260506114137 50 214 0.0 1.0 0.00 0.00 0.00 94 1019.4
20260506113636 50 214 0.0 1.0 0.00 0.00 0.00 93 1019.3
20260506113137 50 214 0.0 1.0 0.00 0.00 0.00 93 1019.3
20260506112636 50 214 0.0 1.0 0.00 0.00 0.00 93 1019.1
20260506112136 50 214 0.0 0.0 0.00 0.00 0.00 93 1019.1
20260506111206 50 214 0.0 1.0 0.00 0.00 0.00 93 1019.1
20260506110706 50 214 0.0 1.0 0.00 0.00 0.00 93 1019.0
20260506110136 50 214 0.0 1.0 0.00 0.00 0.00 93 1019.0
20260506105636 50 214 0.0 1.0 0.00 0.00 0.00 93 1018.7
20260506105206 50 214 0.0 1.0 0.00 0.00 0.00 93 1018.7
20260506104706 50 214 0.0 2.0 0.00 0.00 0.00 93 1018.6
20260506104135 50 214 0.0 2.0 0.00 0.00 0.00 93 1018.5
20260506103705 50 217 0.0 2.0 0.00 0.00 0.00 93 1018.5
20260506103136 50 217 0.0 2.0 0.00 0.00 0.00 93 1018.4
20260506102635 50 238 0.0 2.0 0.00 0.00 0.00 93 1018.3
20260506102205 50 255 0.0 0.0 0.00 0.00 0.00 93 1018.3
20260506101705 50 255 0.0 0.0 0.00 0.00 0.00 93 1018.2
20260506101205 50 255 0.0 1.0 0.00 0.00 0.00 93 1018.3
20260506100635 50 255 0.0 1.0 0.00 0.00 0.00 93 1018.2
20260506100205 50 255 0.0 2.0 0.00 0.00 0.00 93 1018.2
20260506095635 50 256 0.0 2.0 0.00 0.00 0.00 93 1018.2
20260506095204 50 255 0.0 4.0 0.00 0.00 0.00 93 1018.2
20260506094635 50 274 0.0 4.0 0.00 0.00 0.00 93 1018.2
20260506094135 50 266 1.0 4.0 0.00 0.00 0.00 93 1018.2
20260506093704 50 258 3.0 5.0 0.00 0.00 0.00 93 1018.1
20260506093204 50 264 2.0 5.0 0.00 0.00 0.00 93 1018.1
20260506092704 50 248 2.0 5.0 0.00 0.00 0.00 94 1018.0
20260506092204 50 248 3.0 5.0 0.00 0.00 0.00 94 1018.0
20260506091704 50 250 5.0 5.0 0.00 0.00 0.00 94 1018.0
20260506091204 50 219 2.0 5.0 0.00 0.00 0.00 94 1018.1